483  
AXUS43 KGID 262203  
MISGRI  
 
GID CWA HOURLY WEATHER ROUNDUP  
NATIONAL WEATHER SERVICE HASTINGS NE  
400 PM CST SAT NOV 26 2022  
 
NOTE: "FAIR" INDICATES FEW OR NO CLOUDS BELOW 12,000 FEET WITH NO  
SIGNIFICANT WEATHER AND/OR OBSTRUCTIONS TO VISIBILITY.  
   
..SOUTH CENTRAL NEBRASKA
 
 
 
CITY SKY/WX TMP DP RH WIND PRES REMARKS  
GRAND ISLAND MOCLDY 59 19 21 SW5 29.73R  
KEARNEY PTSUNNY 59 19 21 W6 29.73R  
HASTINGS PTSUNNY 57 22 25 SW8 29.72F  
ORD CLOUDY 55 27 34 N17G28 29.75R  
YORK MOCLDY 55 21 26 S7 29.71S  
AURORA MOCLDY 57 21 24 W8 29.73R  
LEXINGTON PTSUNNY 59 22 24 N12 29.74S  
HOLDREGE PTSUNNY 59 20 21 S6 29.72S  
HEBRON CLOUDY 53 28 38 S3 29.74S  
   
..NEBRASKA PANHANDLE
 
 
 
CITY SKY/WX TMP DP RH WIND PRES REMARKS  
CHADRON MOSUNNY 52 28 39 NE17G30 29.91R  
ALLIANCE MOSUNNY 51 25 36 N22 29.87R  
SCOTTSBLUFF SUNNY 53 22 29 N15 29.89R  
SIDNEY MOSUNNY 53 22 29 NE25G38 29.83R  
   
..WESTERN AND NORTH CENTRAL NEBRASKA
 
 
 
CITY SKY/WX TMP DP RH WIND PRES REMARKS  
VALENTINE PTCLDY 50 28 42 N14G29 29.86R  
AINSWORTH CLEAR 52 29 41 N24G32 29.84R  
ONEILL PTCLDY 54 28 37 N16G25 29.79S  
BROKEN BOW PTSUNNY 56 26 31 N18G26 29.77R  
IMPERIAL SUNNY 59 22 24 NE21G30 29.76R  
NORTH PLATTE SUNNY 61 24 24 NE21G33 29.77R  
MCCOOK MOSUNNY 60 19 20 N9 29.72F  
   
..EASTERN NEBRASKA
 
 
 
CITY SKY/WX TMP DP RH WIND PRES REMARKS  
NORFOLK PTCLDY 57 22 25 NW12 29.72F  
SO SIOUX CITY PTCLDY 58 21 24 W15 29.72R  
TEKAMAH MOCLDY 56 26 31 S13 29.72S  
COLUMBUS MOCLDY 58 20 22 W5 29.73S  
ALBION MOCLDY 56 25 30 N14 29.74S  
OMAHA EPPLEY MOCLDY 55 26 32 S12 29.73S  
OFFUTT AFB CLOUDY 55 27 34 S8 29.75F  
MILLARD PTCLDY 56 25 29 S10 29.74F  
LINCOLN MOCLDY 56 28 34 S10 29.73F  
NEBRASKA CITY CLOUDY 51 33 51 S5 29.75F  
BEATRICE CLOUDY 52 32 46 S3 29.73F  
FALLS CITY CLOUDY 50 36 58 SE5 29.75F  
   
..NORTHERN KANSAS
 
 
 
CITY SKY/WX TMP DP RH WIND PRES REMARKS  
GOODLAND N/A N/A N/A N/A MISG 29.72S  
HILL CITY PTSUNNY 59 30 33 S3 29.71F  
NORTON FAIR 59 28 31 S5 29.73S  
PHILLIPSBURG PTSUNNY 58 14 17 SE6 29.71F  
OBERLIN CLOUDY 66 19 16 N5 29.74S  
SMITH CENTER CLOUDY 55 23 28 S7 29.72F  
HAYS LGT RAIN 49 28 44 SE6 29.74S  
RUSSELL CLOUDY 49 27 42 W5 29.71F  
CONCORDIA LGT RAIN 50 35 56 CALM 29.72F  
SALINA CLOUDY 49 36 61 NE5 29.73F  
TOPEKA CLOUDY 51 39 63 E6 29.78R  
 
CLICK HERE TO GO TO PREVIOUS BULLETINS.

The Nexlab NE Page
The Nexlab KS Page Main Text Page